Tracking 23611 objects as of 17-Sep-2021
HD Live streaming from Space Station
objects crossing your sky now
Track INSPIRATION-4

DMSP 5D-2 F13 DEB

Track DMSP 5D-2 F13 DEB now!
10-day predictions


NORAD ID: 42267
Int'l Code: 1995-015GH
Perigee: 827.0 km
Apogee: 986.9 km
Inclination: 98.8 °
Period: 103.0 minutes
Semi major axis: 7277 km
RCS: Unknown
Launch date: March 24, 1995
Source: United States (US)
Launch site: AIR FORCE WESTERN TEST RANGE (AFWTR)

Note: This is SATELLITE DEBRIS
aabbcc
Your satellite tracking list
Your tracking list is empty




NASA's NSSDC Master Catalog

Two Line Element Set (TLE):
1 42267U 95015GH  21259.23088239  .00001110  00000-0  76625-3 0  9997
2 42267  98.7629 174.5909 0109890  56.0546 305.1007 13.98269974326861
Source of the keplerian elements: AFSPC